Weather in Mamaliga

Ukraine / Chernovtci District     48°15′20″N   26°35′14″E
temp.,
°C
wind,
m/s
gust,
m/s
humid.,
%
clouds,
%
prec.,
mm/h
press.,
hPa
HPBL,
m
1 march, mon
mon123:00+3wnw61485100 0.3 1026833
02:00+2nw71296100 3.5 1026656
05:00+2nw5997100 0.9 1027457
08:00+3nnw5995100 1.3 1029538
11:00+5n687580 0.4 10311003
14:00+5n676990 0.6 1032992
17:00+5nnw466683 0.0 1033955
20:00+4nw377792 0.1 1034309
2 march, tue
tue223:00+3wnw2584100 0.1 1035133
02:00+2wnw348989 0.1 103599
05:000wnw37894 0.0 1034191
08:00+1wnw39822 0.0 1033326
11:00+6wnw596525 0.0 1031507
14:00+10nw7115412 0.0 1029742
17:00+9wnw613571 0.0 1027775
20:00+6nw618721 0.0 1028701
3 march, wed
wed323:00+5nw516760 0.0 1030625
02:00+4nw514830 0.0 1031409
05:00+2nw410900 0.0 1031269
08:00+2nw37932 0.0 1031225
11:00+6nw357748 0.0 1031671
14:00+7nw456870 0.0 1030806
17:00+7nw346857 0.0 1028540
20:00+4wsw118047 0.0 102922
4 march, thu
thu423:00+3s22840 0.0 102722
02:00+2sse33900 0.0 102548
05:00+1sse33910 0.0 102255
08:00+2s12840 0.0 102134
11:00+7wnw22570 0.0 1018281
14:00+12wnw35405 0.0 1015781
17:00+11wnw115231 0.0 101423
20:00+8ssw126115 0.0 101422
5 march, fri
fri523:00+6sw12670 0.0 101422
02:00+4sw116712 0.0 101322
05:00+4s2267100 0.0 101222
08:00+5ssw2368100 0.0 101178
11:00+11sw5114892 0.0 1009956
14:00+11sw375296 0.0 1008701
17:00+11w61253100 0.0 1008615
20:00+6nnw398674 0.0 1011369